Time,TemperatureF,DewpointF,PressureIn,WindDirection,WindDirectionDegrees,WindSpeedMPH,WindSpeedGustMPH,Humidity,HourlyPrecipIn,Conditions,Clouds,dailyrainin,SoftwareType,DateUTC
2013-10-29 00:01:00,47.8,35.0,30.25,NE,45,2.4,3.5,61,0.00,CLR,,0.00,WeatherDisplay:10.37,2013-10-29 04:01:00,
2013-10-29 00:03:00,47.7,35.3,30.26,NNW,338,0.5,2.4,62,0.00,CLR,,0.00,WeatherDisplay:10.37,2013-10-29 04:03:00,
2013-10-29 00:08:00,47.5,35.1,30.26,North,0,0.5,4.6,62,0.00,CLR,,0.00,WeatherDisplay:10.37,2013-10-29 04:08:00,
2013-10-29 00:13:00,47.3,34.5,30.26,North,0,0.2,3.5,61,0.00,CLR,,0.00,WeatherDisplay:10.37,2013-10-29 04:13:00,
2013-10-29 00:18:00,47.3,34.9,30.26,NE,45,0.2,1.2,62,0.00,CLR,,0.00,WeatherDisplay:10.37,2013-10-29 04:18:00,
2013-10-29 00:23:00,47.1,34.4,30.26,NW,315,2.2,2.2,61,0.00,CLR,,0.00,WeatherDisplay:10.37,2013-10-29 04:23:00,
2013-10-29 00:28:00,47.1,34.4,30.26,West,270,2.2,2.2,61,0.00,CLR,,0.00,WeatherDisplay:10.37,2013-10-29 04:28:00,
2013-10-29 00:33:00,46.9,34.2,30.26,NNE,22,1.6,4.6,61,0.00,CLR,,0.00,WeatherDisplay:10.37,2013-10-29 04:33:00,
2013-10-29 00:38:00,46.9,34.2,30.26,NNW,338,0.9,3.5,61,0.00,CLR,,0.00,WeatherDisplay:10.37,2013-10-29 04:38:00,
2013-10-29 00:43:00,46.8,33.6,30.26,NNW,338,0.7,3.5,60,0.00,CLR,,0.00,WeatherDisplay:10.37,2013-10-29 04:43:00,
2013-10-29 00:48:00,46.8,34.0,30.26,NNW,338,1.4,1.4,61,0.00,CLR,,0.00,WeatherDisplay:10.37,2013-10-29 04:48:00,
2013-10-29 00:53:00,46.8,34.0,30.27,NNW,338,1.4,1.4,61,0.00,CLR,,0.00,WeatherDisplay:10.37,2013-10-29 04:53:00,
2013-10-29 00:59:00,46.6,33.4,30.27,North,0,1.2,2.3,60,0.00,CLR,,0.00,WeatherDisplay:10.37,2013-10-29 04:59:00,
2013-10-29 01:04:00,46.8,34.0,30.26,WNW,292,0.9,1.2,61,0.00,CLR,,0.00,WeatherDisplay:10.37,2013-10-29 05:04:00,
2013-10-29 01:09:00,46.8,34.0,30.27,ENE,68,0.0,0.0,61,0.00,CLR,,0.00,WeatherDisplay:10.37,2013-10-29 05:09:00,
2013-10-29 01:14:00,46.8,34.0,30.27,North,0,0.0,2.3,61,0.00,CLR,,0.00,WeatherDisplay:10.37,2013-10-29 05:14:00,
2013-10-29 01:19:00,46.8,34.4,30.27,NW,315,0.5,1.2,62,0.00,CLR,,0.00,WeatherDisplay:10.37,2013-10-29 05:19:00,
2013-10-29 01:24:00,46.9,34.6,30.27,ENE,68,0.2,0.2,62,0.00,CLR,,0.00,WeatherDisplay:10.37,2013-10-29 05:24:00,
2013-10-29 01:29:00,46.8,34.4,30.27,NNW,338,0.7,0.7,62,0.00,CLR,,0.00,WeatherDisplay:10.37,2013-10-29 05:29:00,
2013-10-29 01:34:00,46.9,34.6,30.27,North,0,0.5,2.3,62,0.00,CLR,,0.00,WeatherDisplay:10.37,2013-10-29 05:34:00,
2013-10-29 01:39:00,46.9,34.6,30.27,NW,315,1.8,1.8,62,0.00,CLR,,0.00,WeatherDisplay:10.37,2013-10-29 05:39:00,
2013-10-29 01:44:00,46.8,34.4,30.27,NNE,22,0.5,2.3,62,0.00,CLR,,0.00,WeatherDisplay:10.37,2013-10-29 05:44:00,
2013-10-29 01:49:00,46.8,34.4,30.27,ENE,68,0.7,2.3,62,0.00,CLR,,0.00,WeatherDisplay:10.37,2013-10-29 05:49:00,
2013-10-29 01:54:00,46.6,34.2,30.27,North,0,0.0,1.2,62,0.00,CLR,,0.00,WeatherDisplay:10.37,2013-10-29 05:54:00,
2013-10-29 02:00:00,46.6,34.7,30.27,North,0,0.0,0.0,63,0.00,CLR,,0.00,WeatherDisplay:10.37,2013-10-29 06:00:00,
2013-10-29 02:05:00,46.2,34.3,30.27,NNE,22,1.2,0.0,63,0.00,CLR,,0.00,WeatherDisplay:10.37,2013-10-29 06:05:00,
2013-10-29 02:10:00,45.9,34.0,30.27,NNW,338,0.7,1.2,63,0.00,CLR,,0.00,WeatherDisplay:10.37,2013-10-29 06:10:00,
2013-10-29 02:15:00,45.7,33.8,30.27,NW,315,0.0,0.0,63,0.00,CLR,,0.00,WeatherDisplay:10.37,2013-10-29 06:15:00,
2013-10-29 02:20:00,45.3,33.5,30.27,North,0,0.0,0.0,63,0.00,CLR,,0.00,WeatherDisplay:10.37,2013-10-29 06:20:00,
2013-10-29 02:25:00,45.1,33.3,30.27,North,0,0.0,0.0,63,0.00,CLR,,0.00,WeatherDisplay:10.37,2013-10-29 06:25:00,
2013-10-29 02:30:00,45.0,33.5,30.27,North,0,0.0,1.2,64,0.00,CLR,,0.00,WeatherDisplay:10.37,2013-10-29 06:30:00,
2013-10-29 02:35:00,44.6,33.2,30.27,North,0,0.0,0.0,64,0.00,CLR,,0.00,WeatherDisplay:10.37,2013-10-29 06:35:00,
2013-10-29 02:40:00,44.2,33.2,30.28,North,0,0.0,0.0,65,0.00,CLR,,0.00,WeatherDisplay:10.37,2013-10-29 06:40:00,
2013-10-29 02:45:00,43.9,32.9,30.27,North,0,0.0,0.0,65,0.00,CLR,,0.00,WeatherDisplay:10.37,2013-10-29 06:45:00,
2013-10-29 02:51:00,43.5,32.9,30.28,North,0,0.0,0.0,66,0.00,CLR,,0.00,WeatherDisplay:10.37,2013-10-29 06:51:00,
2013-10-29 02:56:00,43.3,32.7,30.27,North,0,0.0,0.0,66,0.00,CLR,,0.00,WeatherDisplay:10.37,2013-10-29 06:56:00,
2013-10-29 03:01:00,43.0,32.8,30.27,North,0,0.0,0.0,67,0.00,CLR,,0.00,WeatherDisplay:10.37,2013-10-29 07:01:00,
2013-10-29 03:06:00,42.6,32.4,30.27,North,0,0.0,0.0,67,0.00,CLR,,0.00,WeatherDisplay:10.37,2013-10-29 07:06:00,
2013-10-29 03:11:00,42.3,32.4,30.27,North,0,0.0,0.0,68,0.00,CLR,,0.00,WeatherDisplay:10.37,2013-10-29 07:11:00,
2013-10-29 03:16:00,42.1,32.3,30.27,North,0,0.0,0.0,68,0.00,CLR,,0.00,WeatherDisplay:10.37,2013-10-29 07:16:00,
2013-10-29 03:21:00,41.7,31.6,30.27,North,0,0.0,0.0,67,0.00,CLR,,0.00,WeatherDisplay:10.37,2013-10-29 07:21:00,
2013-10-29 03:26:00,41.4,31.6,30.27,North,0,0.0,0.0,68,0.00,CLR,,0.00,WeatherDisplay:10.37,2013-10-29 07:26:00,
2013-10-29 03:31:00,41.2,31.4,30.27,North,0,0.0,0.0,68,0.00,CLR,,0.00,WeatherDisplay:10.37,2013-10-29 07:31:00,
2013-10-29 03:36:00,40.8,31.4,30.27,North,0,0.0,0.0,69,0.00,CLR,,0.00,WeatherDisplay:10.37,2013-10-29 07:36:00,
2013-10-29 03:41:00,40.6,31.3,30.28,North,0,0.0,0.0,69,0.00,CLR,,0.00,WeatherDisplay:10.37,2013-10-29 07:41:00,
2013-10-29 03:46:00,40.3,30.9,30.27,North,0,0.0,0.0,69,0.00,CLR,,0.00,WeatherDisplay:10.37,2013-10-29 07:46:00,
2013-10-29 03:51:00,39.9,30.9,30.28,North,0,0.0,0.0,70,0.00,CLR,,0.00,WeatherDisplay:10.37,2013-10-29 07:51:00,
2013-10-29 03:56:00,39.7,30.8,30.28,North,0,0.0,0.0,70,0.00,CLR,,0.00,WeatherDisplay:10.37,2013-10-29 07:56:00,
2013-10-29 04:02:00,39.4,30.8,30.28,North,0,0.0,0.0,71,0.00,CLR,,0.00,WeatherDisplay:10.37,2013-10-29 08:02:00,
2013-10-29 04:07:00,39.2,30.6,30.28,North,0,0.0,0.0,71,0.00,CLR,,0.00,WeatherDisplay:10.37,2013-10-29 08:07:00,
2013-10-29 04:12:00,38.8,30.2,30.28,North,0,0.0,0.0,71,0.00,CLR,,0.00,WeatherDisplay:10.37,2013-10-29 08:12:00,
2013-10-29 04:17:00,38.7,30.1,30.28,North,0,0.0,0.0,71,0.00,CLR,,0.00,WeatherDisplay:10.37,2013-10-29 08:17:00,
2013-10-29 04:22:00,38.3,30.1,30.28,North,0,0.0,0.0,72,0.00,CLR,,0.00,WeatherDisplay:10.37,2013-10-29 08:22:00,
2013-10-29 04:27:00,38.1,29.9,30.28,North,0,0.0,0.0,72,0.00,CLR,,0.00,WeatherDisplay:10.37,2013-10-29 08:27:00,
2013-10-29 04:32:00,37.8,29.9,30.28,North,0,0.0,0.0,73,0.00,CLR,,0.00,WeatherDisplay:10.37,2013-10-29 08:32:00,
2013-10-29 04:37:00,37.8,29.9,30.29,North,0,0.0,0.0,73,0.00,CLR,,0.00,WeatherDisplay:10.37,2013-10-29 08:37:00,
2013-10-29 04:42:00,37.6,30.0,30.29,North,0,0.0,0.0,74,0.00,CLR,,0.00,WeatherDisplay:10.37,2013-10-29 08:42:00,
2013-10-29 04:47:00,37.4,29.9,30.29,North,0,0.0,0.0,74,0.00,CLR,,0.00,WeatherDisplay:10.37,2013-10-29 08:47:00,
2013-10-29 04:52:00,37.0,29.5,30.29,North,0,0.0,0.0,74,0.00,CLR,,0.00,WeatherDisplay:10.37,2013-10-29 08:52:00,
2013-10-29 04:57:00,37.0,29.5,30.29,North,0,0.0,0.0,74,0.00,CLR,,0.00,WeatherDisplay:10.37,2013-10-29 08:57:00,
2013-10-29 05:02:00,36.9,29.3,30.29,North,0,0.0,0.0,74,0.00,CLR,,0.00,WeatherDisplay:10.37,2013-10-29 09:02:00,
2013-10-29 05:07:00,36.7,29.5,30.29,North,0,0.0,0.0,75,0.00,CLR,,0.00,WeatherDisplay:10.37,2013-10-29 09:07:00,
2013-10-29 05:13:00,36.5,29.3,30.30,North,0,0.0,0.0,75,0.00,CLR,,0.00,WeatherDisplay:10.37,2013-10-29 09:13:00,
2013-10-29 05:18:00,36.5,29.3,30.30,North,0,0.0,0.0,75,0.00,CLR,,0.00,WeatherDisplay:10.37,2013-10-29 09:18:00,
2013-10-29 05:23:00,36.3,29.2,30.30,North,0,0.0,0.0,75,0.00,CLR,,0.00,WeatherDisplay:10.37,2013-10-29 09:23:00,
2013-10-29 05:28:00,36.3,29.2,30.30,North,0,0.0,0.0,75,0.00,CLR,,0.00,WeatherDisplay:10.37,2013-10-29 09:28:00,
2013-10-29 05:33:00,36.3,29.2,30.30,North,0,0.0,0.0,75,0.00,CLR,,0.00,WeatherDisplay:10.37,2013-10-29 09:33:00,
2013-10-29 05:38:00,36.5,30.0,30.30,North,0,0.0,0.0,77,0.00,CLR,,0.00,WeatherDisplay:10.37,2013-10-29 09:38:00,
2013-10-29 05:43:00,36.5,29.7,30.30,North,0,0.0,0.0,76,0.00,CLR,,0.00,WeatherDisplay:10.37,2013-10-29 09:43:00,
2013-10-29 05:48:00,36.7,29.8,30.31,North,0,0.0,0.0,76,0.00,CLR,,0.00,WeatherDisplay:10.37,2013-10-29 09:48:00,
2013-10-29 05:53:00,36.7,29.8,30.30,NNE,22,0.0,0.0,76,0.00,CLR,,0.00,WeatherDisplay:10.37,2013-10-29 09:53:00,
2013-10-29 05:58:00,36.9,30.3,30.30,NNE,22,0.0,0.0,77,0.00,CLR,,0.00,WeatherDisplay:10.37,2013-10-29 09:58:00,
2013-10-29 06:03:00,37.0,30.5,30.30,North,0,0.0,0.0,77,0.00,CLR,,0.00,WeatherDisplay:10.37,2013-10-29 10:03:00,
2013-10-29 06:08:00,37.2,30.7,30.30,North,0,0.0,0.0,77,0.00,CLR,,0.00,WeatherDisplay:10.37,2013-10-29 10:08:00,
2013-10-29 06:13:00,37.4,30.8,30.31,North,0,0.0,0.0,77,0.00,CLR,,0.00,WeatherDisplay:10.37,2013-10-29 10:13:00,
2013-10-29 06:18:00,37.6,31.3,30.31,North,0,0.0,0.0,78,0.00,CLR,,0.00,WeatherDisplay:10.37,2013-10-29 10:18:00,
2013-10-29 06:23:00,37.8,31.5,30.31,North,0,0.0,0.0,78,0.00,CLR,,0.00,WeatherDisplay:10.37,2013-10-29 10:23:00,
2013-10-29 06:28:00,37.9,31.7,30.31,North,0,0.0,0.0,78,0.00,CLR,,0.00,WeatherDisplay:10.37,2013-10-29 10:28:00,
2013-10-29 06:33:00,38.1,31.9,30.31,North,0,0.0,0.0,78,0.00,CLR,,0.00,WeatherDisplay:10.37,2013-10-29 10:33:00,
2013-10-29 06:39:00,38.3,32.0,30.31,North,0,0.0,0.0,78,0.00,CLR,,0.00,WeatherDisplay:10.37,2013-10-29 10:39:00,
2013-10-29 06:44:00,38.5,32.5,30.31,North,0,0.0,0.0,79,0.00,CLR,,0.00,WeatherDisplay:10.37,2013-10-29 10:44:00,
2013-10-29 06:49:00,38.7,32.7,30.31,WNW,292,0.0,0.0,79,0.00,CLR,,0.00,WeatherDisplay:10.37,2013-10-29 10:49:00,
2013-10-29 06:54:00,38.8,32.9,30.31,WNW,292,0.0,0.0,79,0.00,CLR,,0.00,WeatherDisplay:10.37,2013-10-29 10:54:00,
2013-10-29 06:59:00,39.0,33.1,30.31,WNW,292,0.0,0.0,79,0.00,CLR,,0.00,WeatherDisplay:10.37,2013-10-29 10:59:00,
2013-10-29 07:04:00,39.2,33.2,30.31,WNW,292,0.0,0.0,79,0.00,CLR,,0.00,WeatherDisplay:10.37,2013-10-29 11:04:00,
2013-10-29 07:09:00,39.4,33.4,30.31,WNW,292,0.0,0.0,79,0.00,CLR,,0.00,WeatherDisplay:10.37,2013-10-29 11:09:00,
2013-10-29 07:14:00,39.6,33.6,30.31,WNW,292,0.0,0.0,79,0.00,CLR,,0.00,WeatherDisplay:10.37,2013-10-29 11:14:00,
2013-10-29 07:19:00,39.7,33.8,30.31,WNW,292,0.0,0.0,79,0.00,CLR,,0.00,WeatherDisplay:10.37,2013-10-29 11:19:00,
2013-10-29 07:24:00,39.9,33.9,30.31,WNW,292,0.0,0.0,79,0.00,CLR,,0.00,WeatherDisplay:10.37,2013-10-29 11:24:00,
2013-10-29 07:29:00,39.9,33.9,30.31,WNW,292,0.0,0.0,79,0.00,CLR,,0.00,WeatherDisplay:10.37,2013-10-29 11:29:00,
2013-10-29 07:34:00,40.1,34.4,30.32,WNW,292,0.0,0.0,80,0.00,CLR,,0.00,WeatherDisplay:10.37,2013-10-29 11:34:00,
2013-10-29 07:39:00,40.3,34.6,30.32,WNW,292,0.0,0.0,80,0.00,CLR,,0.00,WeatherDisplay:10.37,2013-10-29 11:39:00,
2013-10-29 07:44:00,40.3,34.6,30.32,WNW,292,0.0,0.0,80,0.00,CLR,,0.00,WeatherDisplay:10.37,2013-10-29 11:44:00,
2013-10-29 07:49:00,40.5,34.8,30.32,WNW,292,0.0,0.0,80,0.00,CLR,,0.00,WeatherDisplay:10.37,2013-10-29 11:49:00,
2013-10-29 07:54:00,40.6,35.0,30.32,WNW,292,0.0,0.0,80,0.00,CLR,,0.00,WeatherDisplay:10.37,2013-10-29 11:54:00,
2013-10-29 07:59:00,40.8,35.1,30.32,WNW,292,0.0,0.0,80,0.00,CLR,,0.00,WeatherDisplay:10.37,2013-10-29 11:59:00,
2013-10-29 08:04:00,41.2,35.5,30.32,WNW,292,0.0,0.0,80,0.00,CLR,,0.00,WeatherDisplay:10.37,2013-10-29 12:04:00,
2013-10-29 08:09:00,41.4,35.7,30.32,WNW,292,0.0,0.0,80,0.00,CLR,,0.00,WeatherDisplay:10.37,2013-10-29 12:09:00,
2013-10-29 08:14:00,41.5,35.8,30.32,WNW,292,0.0,0.0,80,0.00,CLR,,0.00,WeatherDisplay:10.37,2013-10-29 12:14:00,
2013-10-29 08:19:00,41.7,36.0,30.32,WNW,292,0.0,0.0,80,0.00,CLR,,0.00,WeatherDisplay:10.37,2013-10-29 12:19:00,
2013-10-29 08:24:00,42.1,36.4,30.32,WNW,292,0.0,0.0,80,0.00,CLR,,0.00,WeatherDisplay:10.37,2013-10-29 12:24:00,
2013-10-29 08:29:00,42.3,36.5,30.33,WNW,292,0.0,0.0,80,0.00,CLR,,0.00,WeatherDisplay:10.37,2013-10-29 12:29:00,
2013-10-29 08:34:00,42.6,36.9,30.33,WNW,292,0.0,0.0,80,0.00,CLR,,0.00,WeatherDisplay:10.37,2013-10-29 12:34:00,
2013-10-29 08:40:00,42.8,37.1,30.33,WNW,292,0.0,0.0,80,0.00,CLR,,0.00,WeatherDisplay:10.37,2013-10-29 12:40:00,
2013-10-29 08:45:00,43.2,37.4,30.33,WNW,292,0.0,0.0,80,0.00,CLR,,0.00,WeatherDisplay:10.37,2013-10-29 12:45:00,
2013-10-29 08:50:00,43.3,37.6,30.33,WNW,292,0.0,0.0,80,0.00,CLR,,0.00,WeatherDisplay:10.37,2013-10-29 12:50:00,
2013-10-29 08:55:00,43.5,37.4,30.33,WNW,292,0.0,0.0,79,0.00,CLR,,0.00,WeatherDisplay:10.37,2013-10-29 12:55:00,
2013-10-29 09:00:00,43.5,37.4,30.33,WNW,292,0.0,0.0,79,0.00,CLR,,0.00,WeatherDisplay:10.37,2013-10-29 13:00:00,
2013-10-29 09:05:00,43.7,37.6,30.33,WNW,292,0.0,0.0,79,0.00,CLR,,0.00,WeatherDisplay:10.37,2013-10-29 13:05:00,
2013-10-29 09:10:00,44.1,38.0,30.33,NW,315,0.0,0.0,79,0.00,CLR,,0.00,WeatherDisplay:10.37,2013-10-29 13:10:00,
2013-10-29 09:15:00,44.2,38.1,30.33,NW,315,0.0,0.0,79,0.00,CLR,,0.00,WeatherDisplay:10.37,2013-10-29 13:15:00,
2013-10-29 09:20:00,44.8,38.7,30.33,NNW,338,0.0,0.0,79,0.00,CLR,,0.00,WeatherDisplay:10.37,2013-10-29 13:20:00,
2013-10-29 09:25:00,45.3,39.2,30.33,NNE,22,0.0,0.0,79,0.00,CLR,,0.00,WeatherDisplay:10.37,2013-10-29 13:25:00,
2013-10-29 09:30:00,45.9,39.4,30.33,NNE,22,0.0,0.0,78,0.00,CLR,,0.00,WeatherDisplay:10.37,2013-10-29 13:30:00,
2013-10-29 09:36:00,46.4,39.9,30.33,NNW,338,0.0,1.2,78,0.00,CLR,,0.00,WeatherDisplay:10.37,2013-10-29 13:36:00,
2013-10-29 09:41:00,46.9,40.1,30.33,NNE,22,0.0,0.0,77,0.00,CLR,,0.00,WeatherDisplay:10.37,2013-10-29 13:41:00,
2013-10-29 09:46:00,46.9,39.8,30.33,North,0,0.0,1.2,76,0.00,CLR,,0.00,WeatherDisplay:10.37,2013-10-29 13:46:00,
2013-10-29 09:51:00,47.3,39.8,30.33,NW,315,2.0,2.0,75,0.00,CLR,,0.00,WeatherDisplay:10.37,2013-10-29 13:51:00,
2013-10-29 09:56:00,47.8,40.0,30.33,WNW,292,1.6,1.6,74,0.00,CLR,,0.00,WeatherDisplay:10.37,2013-10-29 13:56:00,
2013-10-29 10:01:00,48.0,39.4,30.33,ENE,68,0.7,1.2,72,0.00,CLR,,0.00,WeatherDisplay:10.37,2013-10-29 14:01:00,
2013-10-29 10:06:00,48.4,39.8,30.33,NE,45,0.2,2.3,72,0.00,CLR,,0.00,WeatherDisplay:10.37,2013-10-29 14:06:00,
2013-10-29 10:11:00,48.7,39.4,30.33,NW,315,4.5,4.5,70,0.00,CLR,,0.00,WeatherDisplay:10.37,2013-10-29 14:11:00,
2013-10-29 10:16:00,48.6,38.5,30.33,NNW,338,1.2,3.5,68,0.00,CLR,,0.00,WeatherDisplay:10.37,2013-10-29 14:16:00,
2013-10-29 10:21:00,48.6,38.5,30.33,East,90,0.2,3.5,68,0.00,CLR,,0.00,WeatherDisplay:10.37,2013-10-29 14:21:00,
2013-10-29 10:26:00,48.7,38.6,30.33,SE,135,1.2,1.2,68,0.00,CLR,,0.00,WeatherDisplay:10.37,2013-10-29 14:26:00,
2013-10-29 10:31:00,49.3,39.5,30.33,NNW,338,1.6,1.6,69,0.00,CLR,,0.00,WeatherDisplay:10.37,2013-10-29 14:31:00,
2013-10-29 10:36:00,49.6,38.7,30.33,North,0,1.4,2.3,66,0.00,CLR,,0.00,WeatherDisplay:10.37,2013-10-29 14:36:00,
2013-10-29 10:41:00,49.8,39.7,30.33,South,180,0.5,0.5,68,0.00,CLR,,0.00,WeatherDisplay:10.37,2013-10-29 14:41:00,
2013-10-29 10:46:00,50.4,39.4,30.33,WSW,248,0.5,1.2,66,0.00,CLR,,0.00,WeatherDisplay:10.37,2013-10-29 14:46:00,
2013-10-29 10:52:00,50.5,39.2,30.33,North,0,1.2,1.2,65,0.00,CLR,,0.00,WeatherDisplay:10.37,2013-10-29 14:52:00,
2013-10-29 10:57:00,50.4,39.0,30.33,East,90,0.7,1.2,65,0.00,CLR,,0.00,WeatherDisplay:10.37,2013-10-29 14:57:00,
2013-10-29 11:02:00,50.2,38.9,30.33,ENE,68,2.6,2.6,65,0.00,CLR,,0.00,WeatherDisplay:10.37,2013-10-29 15:02:00,
2013-10-29 11:07:00,50.2,38.9,30.33,SE,135,0.5,0.5,65,0.00,CLR,,0.00,WeatherDisplay:10.37,2013-10-29 15:07:00,
2013-10-29 11:12:00,50.4,39.0,30.32,WNW,292,0.7,1.8,65,0.00,CLR,,0.00,WeatherDisplay:10.37,2013-10-29 15:12:00,
2013-10-29 11:17:00,50.7,39.0,30.33,ENE,68,1.4,4.6,64,0.00,CLR,,0.00,WeatherDisplay:10.37,2013-10-29 15:17:00,
2013-10-29 11:22:00,51.6,39.8,30.32,SSW,202,0.0,1.2,64,0.00,CLR,,0.00,WeatherDisplay:10.37,2013-10-29 15:22:00,
2013-10-29 11:27:00,52.2,40.3,30.32,ENE,68,2.0,2.3,64,0.00,CLR,,0.00,WeatherDisplay:10.37,2013-10-29 15:27:00,
2013-10-29 11:32:00,52.2,40.3,30.32,East,90,0.5,2.3,64,0.00,CLR,,0.00,WeatherDisplay:10.37,2013-10-29 15:32:00,
2013-10-29 11:37:00,52.0,40.2,30.32,East,90,1.4,2.3,64,0.00,CLR,,0.00,WeatherDisplay:10.37,2013-10-29 15:37:00,
2013-10-29 11:42:00,51.8,40.0,30.32,East,90,0.2,0.0,64,0.00,CLR,,0.00,WeatherDisplay:10.37,2013-10-29 15:42:00,
2013-10-29 11:47:00,52.0,40.2,30.33,SE,135,0.0,1.2,64,0.00,CLR,,0.00,WeatherDisplay:10.37,2013-10-29 15:47:00,
2013-10-29 11:53:00,52.0,39.8,30.32,NNW,338,0.5,1.2,63,0.00,CLR,,0.00,WeatherDisplay:10.37,2013-10-29 15:53:00,
2013-10-29 11:58:00,51.8,39.2,30.32,NNW,338,0.9,1.2,62,0.00,CLR,,0.00,WeatherDisplay:10.37,2013-10-29 15:58:00,
2013-10-29 12:03:00,52.0,39.8,30.31,ENE,68,1.8,2.3,63,0.00,CLR,,0.00,WeatherDisplay:10.37,2013-10-29 16:03:00,
2013-10-29 12:08:00,52.5,39.9,30.31,SE,135,0.0,4.6,62,0.00,CLR,,0.00,WeatherDisplay:10.37,2013-10-29 16:08:00,
2013-10-29 12:13:00,53.1,40.0,30.31,North,0,0.9,2.3,61,0.00,CLR,,0.00,WeatherDisplay:10.37,2013-10-29 16:13:00,
2013-10-29 12:18:00,53.2,39.3,30.31,WNW,292,2.0,5.8,59,0.00,CLR,,0.00,WeatherDisplay:10.37,2013-10-29 16:18:00,
2013-10-29 12:23:00,53.2,39.7,30.31,NE,45,1.2,3.5,60,0.00,CLR,,0.00,WeatherDisplay:10.37,2013-10-29 16:23:00,
2013-10-29 12:28:00,52.9,39.8,30.31,North,0,2.0,2.0,61,0.00,CLR,,0.00,WeatherDisplay:10.37,2013-10-29 16:28:00,
2013-10-29 12:33:00,52.3,39.3,30.30,North,0,3.3,3.3,61,0.00,CLR,,0.00,WeatherDisplay:10.37,2013-10-29 16:33:00,
2013-10-29 12:38:00,52.3,39.7,30.30,SSE,158,1.8,2.3,62,0.00,CLR,,0.00,WeatherDisplay:10.37,2013-10-29 16:38:00,
2013-10-29 12:43:00,52.7,39.6,30.29,WNW,292,2.2,2.2,61,0.00,CLR,,0.00,WeatherDisplay:10.37,2013-10-29 16:43:00,
2013-10-29 12:48:00,52.5,39.0,30.29,NNE,22,0.7,4.6,60,0.00,CLR,,0.00,WeatherDisplay:10.37,2013-10-29 16:48:00,
2013-10-29 12:53:00,52.5,39.5,30.29,ENE,68,0.5,1.2,61,0.00,CLR,,0.00,WeatherDisplay:10.37,2013-10-29 16:53:00,
2013-10-29 12:58:00,52.9,39.8,30.29,NE,45,1.2,1.2,61,0.00,CLR,,0.00,WeatherDisplay:10.37,2013-10-29 16:58:00,
2013-10-29 13:03:00,53.2,39.7,30.29,NE,45,1.4,2.3,60,0.00,CLR,,0.00,WeatherDisplay:10.37,2013-10-29 17:03:00,
2013-10-29 13:08:00,53.2,39.7,30.29,NNW,338,1.2,3.5,60,0.00,CLR,,0.00,WeatherDisplay:10.37,2013-10-29 17:08:00,
2013-10-29 13:13:00,52.9,39.8,30.29,North,0,0.5,2.3,61,0.00,CLR,,0.00,WeatherDisplay:10.37,2013-10-29 17:13:00,
2013-10-29 13:18:00,52.5,39.0,30.29,WSW,248,0.2,2.3,60,0.00,CLR,,0.00,WeatherDisplay:10.37,2013-10-29 17:18:00,
2013-10-29 13:24:00,52.5,39.0,30.29,ENE,68,4.3,4.3,60,0.00,CLR,,0.00,WeatherDisplay:10.37,2013-10-29 17:24:00,
2013-10-29 13:29:00,52.9,39.8,30.29,SE,135,0.9,3.5,61,0.00,CLR,,0.00,WeatherDisplay:10.37,2013-10-29 17:29:00,
2013-10-29 13:34:00,53.2,40.1,30.29,NE,45,1.2,1.2,61,0.00,CLR,,0.00,WeatherDisplay:10.37,2013-10-29 17:34:00,
2013-10-29 13:39:00,53.6,39.6,30.29,ENE,68,3.8,3.8,59,0.00,CLR,,0.00,WeatherDisplay:10.37,2013-10-29 17:39:00,
2013-10-29 13:44:00,53.4,39.9,30.30,North,0,2.4,3.5,60,0.00,CLR,,0.00,WeatherDisplay:10.37,2013-10-29 17:44:00,
2013-10-29 13:49:00,52.9,39.4,30.30,ESE,112,0.5,2.3,60,0.00,CLR,,0.00,WeatherDisplay:10.37,2013-10-29 17:49:00,
2013-10-29 13:54:00,52.3,39.3,30.30,ENE,68,2.0,3.5,61,0.00,CLR,,0.00,WeatherDisplay:10.37,2013-10-29 17:54:00,
2013-10-29 13:59:00,51.6,38.6,30.30,East,90,0.7,1.2,61,0.00,CLR,,0.00,WeatherDisplay:10.37,2013-10-29 17:59:00,
2013-10-29 14:04:00,51.3,38.3,30.30,North,0,1.2,3.5,61,0.00,CLR,,0.00,WeatherDisplay:10.37,2013-10-29 18:04:00,
2013-10-29 14:09:00,51.3,38.7,30.30,NNE,22,1.2,2.3,62,0.00,CLR,,0.00,WeatherDisplay:10.37,2013-10-29 18:09:00,
2013-10-29 14:14:00,51.4,39.3,30.30,North,0,0.7,2.3,63,0.00,CLR,,0.00,WeatherDisplay:10.37,2013-10-29 18:14:00,
2013-10-29 14:20:00,51.3,39.1,30.30,NNW,338,1.8,1.8,63,0.00,CLR,,0.00,WeatherDisplay:10.37,2013-10-29 18:20:00,
2013-10-29 14:25:00,51.1,38.9,30.30,ESE,112,0.5,2.3,63,0.00,CLR,,0.00,WeatherDisplay:10.37,2013-10-29 18:25:00,
2013-10-29 14:30:00,51.4,39.7,30.30,NNW,338,3.3,3.3,64,0.00,CLR,,0.00,WeatherDisplay:10.37,2013-10-29 18:30:00,
2013-10-29 14:35:00,51.8,40.0,30.31,ENE,68,1.8,4.6,64,0.00,CLR,,0.00,WeatherDisplay:10.37,2013-10-29 18:35:00,
2013-10-29 14:40:00,52.0,39.4,30.30,ENE,68,1.8,5.8,62,0.00,CLR,,0.00,WeatherDisplay:10.37,2013-10-29 18:40:00,
2013-10-29 14:45:00,51.8,39.6,30.30,ENE,68,1.8,2.3,63,0.00,CLR,,0.00,WeatherDisplay:10.37,2013-10-29 18:45:00,
2013-10-29 14:50:00,51.6,39.4,30.30,NNE,22,0.7,2.3,63,0.00,CLR,,0.00,WeatherDisplay:10.37,2013-10-29 18:50:00,
2013-10-29 14:55:00,51.6,39.4,30.31,North,0,1.2,2.3,63,0.00,CLR,,0.00,WeatherDisplay:10.37,2013-10-29 18:55:00,
2013-10-29 15:00:00,51.4,39.3,30.31,NE,45,1.4,1.4,63,0.00,CLR,,0.00,WeatherDisplay:10.37,2013-10-29 19:00:00,
2013-10-29 15:05:00,51.3,39.1,30.31,North,0,1.8,3.5,63,0.00,CLR,,0.00,WeatherDisplay:10.37,2013-10-29 19:05:00,
2013-10-29 15:10:00,51.1,38.9,30.30,North,0,0.0,3.5,63,0.00,CLR,,0.00,WeatherDisplay:10.37,2013-10-29 19:10:00,
2013-10-29 15:15:00,50.9,38.7,30.30,NNE,22,1.4,3.5,63,0.00,CLR,,0.00,WeatherDisplay:10.37,2013-10-29 19:15:00,
2013-10-29 15:20:00,51.1,38.9,30.30,West,270,1.4,2.3,63,0.00,CLR,,0.00,WeatherDisplay:10.37,2013-10-29 19:20:00,
2013-10-29 15:25:00,51.3,39.5,30.30,ESE,112,2.4,3.5,64,0.00,CLR,,0.00,WeatherDisplay:10.37,2013-10-29 19:25:00,
2013-10-29 15:30:00,51.4,39.3,30.30,ENE,68,4.5,5.8,63,0.00,CLR,,0.00,WeatherDisplay:10.37,2013-10-29 19:30:00,
2013-10-29 15:35:00,51.3,39.1,30.30,ENE,68,2.0,5.8,63,0.00,CLR,,0.00,WeatherDisplay:10.37,2013-10-29 19:35:00,
2013-10-29 15:40:00,50.7,39.0,30.30,NNE,22,2.4,2.4,64,0.00,CLR,,0.00,WeatherDisplay:10.37,2013-10-29 19:40:00,
2013-10-29 15:45:00,50.0,38.3,30.31,ENE,68,1.6,2.3,64,0.00,CLR,,0.00,WeatherDisplay:10.37,2013-10-29 19:45:00,
2013-10-29 15:50:00,49.8,38.1,30.31,NNW,338,0.5,3.5,64,0.00,CLR,,0.00,WeatherDisplay:10.37,2013-10-29 19:50:00,
2013-10-29 15:55:00,49.6,38.0,30.31,North,0,0.2,1.2,64,0.00,CLR,,0.00,WeatherDisplay:10.37,2013-10-29 19:55:00,
2013-10-29 16:00:00,49.6,38.0,30.31,ENE,68,5.4,5.4,64,0.00,CLR,,0.00,WeatherDisplay:10.37,2013-10-29 20:00:00,
2013-10-29 16:05:00,49.6,38.0,30.31,East,90,1.6,3.5,64,0.00,CLR,,0.00,WeatherDisplay:10.37,2013-10-29 20:05:00,
2013-10-29 16:10:00,49.8,38.1,30.31,ENE,68,1.2,3.5,64,0.00,CLR,,0.00,WeatherDisplay:10.37,2013-10-29 20:10:00,
2013-10-29 16:15:00,49.8,38.1,30.31,NE,45,3.6,3.6,64,0.00,CLR,,0.00,WeatherDisplay:10.37,2013-10-29 20:15:00,
2013-10-29 16:20:00,49.6,38.3,30.31,ENE,68,1.8,2.3,65,0.00,CLR,,0.00,WeatherDisplay:10.37,2013-10-29 20:20:00,
2013-10-29 16:25:00,49.5,37.8,30.31,NE,45,1.8,1.8,64,0.00,CLR,,0.00,WeatherDisplay:10.37,2013-10-29 20:25:00,
2013-10-29 16:30:00,49.3,38.0,30.31,East,90,2.4,3.5,65,0.00,CLR,,0.00,WeatherDisplay:10.37,2013-10-29 20:30:00,
2013-10-29 16:35:00,49.1,37.8,30.31,North,0,1.2,1.2,65,0.00,CLR,,0.00,WeatherDisplay:10.37,2013-10-29 20:35:00,
2013-10-29 16:40:00,48.9,37.7,30.31,ENE,68,2.0,3.5,65,0.00,CLR,,0.00,WeatherDisplay:10.37,2013-10-29 20:40:00,
2013-10-29 16:45:00,48.7,37.5,30.31,East,90,0.9,1.2,65,0.00,CLR,,0.00,WeatherDisplay:10.37,2013-10-29 20:45:00,
2013-10-29 16:50:00,48.6,37.7,30.31,ENE,68,1.8,2.3,66,0.00,CLR,,0.00,WeatherDisplay:10.37,2013-10-29 20:50:00,
2013-10-29 16:55:00,48.6,37.7,30.31,NE,45,0.0,3.5,66,0.00,CLR,,0.00,WeatherDisplay:10.37,2013-10-29 20:55:00,
2013-10-29 17:00:00,48.6,37.7,30.31,NE,45,1.8,2.3,66,0.00,CLR,,0.00,WeatherDisplay:10.37,2013-10-29 21:00:00,
2013-10-29 17:05:00,48.4,37.5,30.31,NE,45,2.2,2.3,66,0.00,CLR,,0.00,WeatherDisplay:10.37,2013-10-29 21:05:00,
2013-10-29 17:10:00,48.2,37.4,30.31,NNE,22,0.9,1.4,66,0.00,CLR,,0.00,WeatherDisplay:10.37,2013-10-29 21:10:00,
2013-10-29 17:15:00,48.2,37.8,30.31,East,90,0.7,2.3,67,0.00,CLR,,0.00,WeatherDisplay:10.37,2013-10-29 21:15:00,
2013-10-29 17:20:00,47.8,37.4,30.32,NNE,22,2.0,3.5,67,0.00,CLR,,0.00,WeatherDisplay:10.37,2013-10-29 21:20:00,
2013-10-29 17:25:00,47.8,37.4,30.32,NE,45,1.2,4.6,67,0.00,CLR,,0.00,WeatherDisplay:10.37,2013-10-29 21:25:00,
2013-10-29 17:30:00,47.8,37.4,30.32,NNW,338,2.2,2.3,67,0.00,CLR,,0.00,WeatherDisplay:10.37,2013-10-29 21:30:00,
2013-10-29 17:35:00,47.5,37.1,30.31,NE,45,0.9,2.3,67,0.00,CLR,,0.00,WeatherDisplay:10.37,2013-10-29 21:35:00,
2013-10-29 17:40:00,47.3,36.9,30.31,NNE,22,1.4,2.3,67,0.00,CLR,,0.00,WeatherDisplay:10.37,2013-10-29 21:40:00,
2013-10-29 17:45:00,47.3,36.9,30.31,ENE,68,4.0,4.0,67,0.00,CLR,,0.00,WeatherDisplay:10.37,2013-10-29 21:45:00,
2013-10-29 17:50:00,47.1,36.7,30.31,NNE,22,0.9,1.2,67,0.00,CLR,,0.00,WeatherDisplay:10.37,2013-10-29 21:50:00,
2013-10-29 17:55:00,46.9,36.5,30.31,NE,45,0.5,2.3,67,0.00,CLR,,0.00,WeatherDisplay:10.37,2013-10-29 21:55:00,
2013-10-29 18:00:00,46.8,36.8,30.31,NE,45,0.0,1.2,68,0.00,CLR,,0.00,WeatherDisplay:10.37,2013-10-29 22:00:00,
2013-10-29 18:05:00,46.4,36.4,30.31,NE,45,1.2,1.2,68,0.00,CLR,,0.00,WeatherDisplay:10.37,2013-10-29 22:05:00,
2013-10-29 18:10:00,46.0,36.1,30.31,North,0,0.0,0.0,68,0.00,CLR,,0.00,WeatherDisplay:10.37,2013-10-29 22:10:00,
2013-10-29 18:15:00,45.9,35.9,30.32,North,0,0.5,1.2,68,0.00,CLR,,0.00,WeatherDisplay:10.37,2013-10-29 22:15:00,
2013-10-29 18:20:00,45.5,35.5,30.32,North,0,0.0,1.2,68,0.00,CLR,,0.00,WeatherDisplay:10.37,2013-10-29 22:20:00,
2013-10-29 18:25:00,45.3,35.7,30.32,North,0,0.5,1.2,69,0.00,CLR,,0.00,WeatherDisplay:10.37,2013-10-29 22:25:00,
2013-10-29 18:30:00,45.1,35.6,30.32,ENE,68,0.9,1.2,69,0.00,CLR,,0.00,WeatherDisplay:10.37,2013-10-29 22:30:00,
2013-10-29 18:35:00,45.0,35.4,30.32,ENE,68,0.7,1.2,69,0.00,CLR,,0.00,WeatherDisplay:10.37,2013-10-29 22:35:00,
2013-10-29 18:40:00,45.0,35.4,30.32,ENE,68,0.0,0.0,69,0.00,CLR,,0.00,WeatherDisplay:10.37,2013-10-29 22:40:00,
2013-10-29 18:45:00,44.8,35.6,30.32,East,90,0.0,0.0,70,0.00,CLR,,0.00,WeatherDisplay:10.37,2013-10-29 22:45:00,
2013-10-29 18:50:00,44.6,35.4,30.32,East,90,0.0,0.0,70,0.00,CLR,,0.00,WeatherDisplay:10.37,2013-10-29 22:50:00,
2013-10-29 18:55:00,44.4,35.2,30.32,East,90,0.0,0.0,70,0.00,CLR,,0.00,WeatherDisplay:10.37,2013-10-29 22:55:00,
2013-10-29 19:00:00,44.2,35.1,30.32,East,90,0.0,0.0,70,0.00,CLR,,0.00,WeatherDisplay:10.37,2013-10-29 23:00:00,
2013-10-29 19:05:00,44.1,35.3,30.32,ENE,68,1.6,1.6,71,0.00,CLR,,0.00,WeatherDisplay:10.37,2013-10-29 23:05:00,
2013-10-29 19:10:00,43.9,35.1,30.32,East,90,0.0,1.2,71,0.00,CLR,,0.00,WeatherDisplay:10.37,2013-10-29 23:10:00,
2013-10-29 19:15:00,43.7,34.6,30.32,ENE,68,0.5,1.2,70,0.00,CLR,,0.00,WeatherDisplay:10.37,2013-10-29 23:15:00,
2013-10-29 19:20:00,43.5,34.7,30.32,North,0,0.9,0.9,71,0.00,CLR,,0.00,WeatherDisplay:10.37,2013-10-29 23:20:00,
2013-10-29 19:25:00,43.2,34.4,30.32,ENE,68,0.0,0.0,71,0.00,CLR,,0.00,WeatherDisplay:10.37,2013-10-29 23:25:00,
2013-10-29 19:30:00,43.0,34.2,30.32,North,0,0.0,0.0,71,0.00,CLR,,0.00,WeatherDisplay:10.37,2013-10-29 23:30:00,
2013-10-29 19:35:00,42.8,34.0,30.32,ENE,68,0.0,0.0,71,0.00,CLR,,0.00,WeatherDisplay:10.37,2013-10-29 23:35:00,
2013-10-29 19:40:00,42.4,33.7,30.32,ENE,68,0.5,0.5,71,0.00,CLR,,0.00,WeatherDisplay:10.37,2013-10-29 23:40:00,
2013-10-29 19:45:00,42.3,33.5,30.32,ENE,68,0.0,0.0,71,0.00,CLR,,0.00,WeatherDisplay:10.37,2013-10-29 23:45:00,
2013-10-29 19:50:00,42.1,33.7,30.32,ENE,68,0.0,0.0,72,0.00,CLR,,0.00,WeatherDisplay:10.37,2013-10-29 23:50:00,
2013-10-29 19:55:00,41.7,33.4,30.32,ENE,68,0.0,0.0,72,0.00,CLR,,0.00,WeatherDisplay:10.37,2013-10-29 23:55:00,
2013-10-29 20:01:00,41.5,33.2,30.32,ENE,68,0.0,0.0,72,0.00,CLR,,0.00,WeatherDisplay:10.37,2013-10-30 00:01:00,
2013-10-29 20:06:00,41.4,33.4,30.32,NNW,338,0.0,0.0,73,0.00,CLR,,0.00,WeatherDisplay:10.37,2013-10-30 00:06:00,
2013-10-29 20:11:00,41.0,33.0,30.32,NNW,338,0.0,0.0,73,0.00,CLR,,0.00,WeatherDisplay:10.37,2013-10-30 00:11:00,
2013-10-29 20:16:00,40.8,33.2,30.32,NNW,338,0.0,0.0,74,0.00,CLR,,0.00,WeatherDisplay:10.37,2013-10-30 00:16:00,
2013-10-29 20:21:00,40.6,33.0,30.32,NNW,338,0.0,0.0,74,0.00,CLR,,0.00,WeatherDisplay:10.37,2013-10-30 00:21:00,
2013-10-29 20:26:00,40.5,32.8,30.32,NNW,338,0.0,0.0,74,0.00,CLR,,0.00,WeatherDisplay:10.37,2013-10-30 00:26:00,
2013-10-29 20:31:00,40.3,32.6,30.32,NNW,338,0.0,0.0,74,0.00,CLR,,0.00,WeatherDisplay:10.37,2013-10-30 00:31:00,
2013-10-29 20:36:00,40.1,32.8,30.32,NNW,338,0.0,0.0,75,0.00,CLR,,0.00,WeatherDisplay:10.37,2013-10-30 00:36:00,
2013-10-29 20:41:00,39.9,32.6,30.33,NNW,338,0.0,0.0,75,0.00,CLR,,0.00,WeatherDisplay:10.37,2013-10-30 00:41:00,
2013-10-29 20:46:00,39.7,32.5,30.33,NNW,338,0.0,0.0,75,0.00,CLR,,0.00,WeatherDisplay:10.37,2013-10-30 00:46:00,
2013-10-29 20:51:00,39.6,32.6,30.33,NNW,338,0.0,0.0,76,0.00,CLR,,0.00,WeatherDisplay:10.37,2013-10-30 00:51:00,
2013-10-29 20:56:00,39.4,32.4,30.33,NNW,338,0.0,0.0,76,0.00,CLR,,0.00,WeatherDisplay:10.37,2013-10-30 00:56:00,
2013-10-29 21:01:00,39.0,32.1,30.33,North,0,0.0,0.0,76,0.00,CLR,,0.00,WeatherDisplay:10.37,2013-10-30 01:01:00,
2013-10-29 21:06:00,38.8,32.2,30.33,North,0,0.0,0.0,77,0.00,CLR,,0.00,WeatherDisplay:10.37,2013-10-30 01:06:00,
2013-10-29 21:11:00,38.7,32.1,30.33,North,0,0.0,0.0,77,0.00,CLR,,0.00,WeatherDisplay:10.37,2013-10-30 01:11:00,
2013-10-29 21:16:00,38.7,32.1,30.33,North,0,0.0,0.0,77,0.00,CLR,,0.00,WeatherDisplay:10.37,2013-10-30 01:16:00,
2013-10-29 21:21:00,38.5,31.9,30.33,North,0,0.0,0.0,77,0.00,CLR,,0.00,WeatherDisplay:10.37,2013-10-30 01:21:00,
2013-10-29 21:26:00,38.5,31.9,30.33,North,0,0.0,0.0,77,0.00,CLR,,0.00,WeatherDisplay:10.37,2013-10-30 01:26:00,
2013-10-29 21:31:00,38.3,31.4,30.33,North,0,0.0,0.0,76,0.00,CLR,,0.00,WeatherDisplay:10.37,2013-10-30 01:31:00,
2013-10-29 21:36:00,38.1,31.2,30.33,North,0,0.0,0.0,76,0.00,CLR,,0.00,WeatherDisplay:10.37,2013-10-30 01:36:00,
2013-10-29 21:41:00,37.9,31.0,30.33,North,0,0.0,0.0,76,0.00,CLR,,0.00,WeatherDisplay:10.37,2013-10-30 01:41:00,
2013-10-29 21:46:00,37.8,31.2,30.33,North,0,0.0,0.0,77,0.00,CLR,,0.00,WeatherDisplay:10.37,2013-10-30 01:46:00,
2013-10-29 21:51:00,37.6,31.0,30.33,North,0,0.0,0.0,77,0.00,CLR,,0.00,WeatherDisplay:10.37,2013-10-30 01:51:00,
2013-10-29 21:56:00,37.6,31.0,30.32,North,0,0.0,0.0,77,0.00,CLR,,0.00,WeatherDisplay:10.37,2013-10-30 01:56:00,
2013-10-29 22:01:00,37.4,31.2,30.32,North,0,0.0,0.0,78,0.00,CLR,,0.00,WeatherDisplay:10.37,2013-10-30 02:01:00,
2013-10-29 22:06:00,37.4,31.2,30.32,North,0,0.0,0.0,78,0.00,CLR,,0.00,WeatherDisplay:10.37,2013-10-30 02:06:00,
2013-10-29 22:11:00,37.6,31.7,30.32,North,0,0.0,0.0,79,0.00,CLR,,0.00,WeatherDisplay:10.37,2013-10-30 02:11:00,
2013-10-29 22:16:00,37.8,32.1,30.32,North,0,0.0,0.0,80,0.00,CLR,,0.00,WeatherDisplay:10.37,2013-10-30 02:16:00,
2013-10-29 22:21:00,37.9,32.6,30.32,North,0,0.0,0.0,81,0.00,CLR,,0.00,WeatherDisplay:10.37,2013-10-30 02:21:00,
2013-10-29 22:26:00,38.3,33.6,30.32,North,0,0.0,0.0,83,0.00,CLR,,0.00,WeatherDisplay:10.37,2013-10-30 02:26:00,
2013-10-29 22:31:00,38.5,33.5,30.32,North,0,0.0,0.0,82,0.00,CLR,,0.00,WeatherDisplay:10.37,2013-10-30 02:31:00,
2013-10-29 22:36:00,38.5,34.1,30.32,North,0,0.0,0.0,84,0.00,CLR,,0.00,WeatherDisplay:10.37,2013-10-30 02:36:00,
2013-10-29 22:41:00,39.2,34.8,30.32,North,0,0.0,0.0,84,0.00,CLR,,0.00,WeatherDisplay:10.37,2013-10-30 02:41:00,
2013-10-29 22:46:00,39.0,34.9,30.32,North,0,0.0,0.0,85,0.00,CLR,,0.00,WeatherDisplay:10.37,2013-10-30 02:46:00,
2013-10-29 22:51:00,38.8,34.7,30.32,North,0,0.0,0.0,85,0.00,CLR,,0.00,WeatherDisplay:10.37,2013-10-30 02:51:00,
2013-10-29 22:56:00,38.5,34.1,30.32,North,0,0.0,0.0,84,0.00,CLR,,0.00,WeatherDisplay:10.37,2013-10-30 02:56:00,
2013-10-29 23:01:00,38.5,34.4,30.32,North,0,0.0,0.0,85,0.00,CLR,,0.00,WeatherDisplay:10.37,2013-10-30 03:01:00,
2013-10-29 23:06:00,38.5,34.1,30.31,North,0,0.0,0.0,84,0.00,CLR,,0.00,WeatherDisplay:10.37,2013-10-30 03:06:00,
2013-10-29 23:11:00,38.3,34.2,30.31,North,0,0.0,0.0,85,0.00,CLR,,0.00,WeatherDisplay:10.37,2013-10-30 03:11:00,
2013-10-29 23:16:00,38.3,33.9,30.31,North,0,0.0,0.0,84,0.00,CLR,,0.00,WeatherDisplay:10.37,2013-10-30 03:16:00,
2013-10-29 23:21:00,37.9,33.2,30.32,North,0,0.0,0.0,83,0.00,CLR,,0.00,WeatherDisplay:10.37,2013-10-30 03:21:00,
2013-10-29 23:26:00,37.6,32.6,30.31,North,0,0.0,0.0,82,0.00,CLR,,0.00,WeatherDisplay:10.37,2013-10-30 03:26:00,
2013-10-29 23:31:00,37.2,32.2,30.31,North,0,0.0,0.0,82,0.00,CLR,,0.00,WeatherDisplay:10.37,2013-10-30 03:31:00,
2013-10-29 23:36:00,37.0,32.1,30.32,North,0,0.0,0.0,82,0.00,CLR,,0.00,WeatherDisplay:10.37,2013-10-30 03:36:00,
2013-10-29 23:41:00,36.9,31.9,30.32,North,0,0.0,0.0,82,0.00,CLR,,0.00,WeatherDisplay:10.37,2013-10-30 03:41:00,
2013-10-29 23:46:00,36.5,31.5,30.31,North,0,0.0,0.0,82,0.00,CLR,,0.00,WeatherDisplay:10.37,2013-10-30 03:46:00,
2013-10-29 23:51:00,36.3,31.4,30.31,North,0,0.0,0.0,82,0.00,CLR,,0.00,WeatherDisplay:10.37,2013-10-30 03:51:00,
2013-10-29 23:56:00,36.3,31.4,30.31,North,0,0.0,0.0,82,0.00,CLR,,0.00,WeatherDisplay:10.37,2013-10-30 03:56:00,